Date String (YYYY-MM-DD hh:mm:ss) UTC,Instrument flags,Ambient pressure (hPa),Sample flow (lpm),Bypass flow (lpm),Sample temperature (°C),Ambient temperature (°C),ASC tube jacket temperature (°C),LED temperature (°C),Box temperature (°C),Sample RH (%),Span deviation,Mass concentration (μg/m³),Mass concentration (μg/m³),Mass concentration (μg/m³)
DateTimeUTC,F1_M11,P_M11,Q1_M11,Q2_M11,T1_M11,T2_M11,T3_M11,T4_M11,T5_M11,U1_M11,ZSPAN_M11,X2_M11,X0_M11,X1_M11
2023-05-18 03:00:00,,0828.4,4.99,0.00,29.4,27.9,00.0,37.7,31.1,18.4,0000.0,0004.18,0010.35,0003.41
2023-05-18 03:01:00,,0828.4,5.01,0.00,29.4,28.0,00.0,37.8,31.1,18.4,0000.0,0004.13,0010.06,0003.39
2023-05-18 03:02:00,,0828.5,5.01,0.00,29.5,28.0,00.0,37.8,31.1,18.5,0000.0,0004.10,0009.57,0003.37
2023-05-18 03:03:00,,0828.6,4.99,0.00,29.5,28.1,00.0,37.8,31.1,18.9,0000.0,0004.09,0009.12,0003.36
2023-05-18 03:04:00,,0828.6,4.99,0.00,29.5,28.1,00.0,37.8,31.2,20.3,0000.0,0004.17,0009.03,0003.35
2023-05-18 03:05:00,,0828.7,4.99,0.00,29.5,28.1,00.0,37.8,31.2,21.2,0000.0,0004.23,0009.20,0003.35
2023-05-18 03:06:00,,0828.8,5.01,0.00,29.5,28.2,00.0,37.8,31.2,19.7,0000.0,0004.19,0008.67,0003.35
2023-05-18 03:07:00,,0828.8,5.01,0.00,29.6,28.2,00.0,37.8,31.2,19.3,0000.0,0004.19,0008.42,0003.35
2023-05-18 03:08:00,,0828.9,5.01,0.00,29.6,28.2,00.0,37.9,31.3,19.4,0000.0,0004.17,0008.29,0003.35
2023-05-18 03:09:00,,0829.0,4.99,0.00,29.6,28.3,00.0,37.9,31.3,19.1,0000.0,0004.20,0008.29,0003.34
2023-05-18 03:10:00,,0828.9,5.00,0.00,29.6,28.3,00.0,37.9,31.3,19.6,0000.0,0004.21,0008.29,0003.34
2023-05-18 03:11:00,,0828.9,5.01,0.00,29.7,28.3,00.0,37.9,31.3,19.8,0000.0,0004.20,0008.28,0003.34
2023-05-18 03:12:00,,0829.0,5.01,0.00,29.7,28.3,00.0,37.9,31.4,19.5,0000.0,0004.20,0008.43,0003.34
2023-05-18 03:13:00,,0829.1,5.00,0.00,29.7,28.4,00.0,37.9,31.4,20.1,0000.0,0004.25,0009.42,0003.36
2023-05-18 03:14:00,,0829.1,4.98,0.00,29.7,28.4,00.0,38.0,31.4,20.5,0000.0,0004.28,0009.51,0003.35
2023-05-18 03:15:00,,0829.1,5.00,0.00,29.7,28.4,00.0,38.0,31.4,20.8,0000.0,0004.22,0009.47,0003.35
2023-05-18 03:16:00,,0829.2,5.00,0.00,29.8,28.4,00.0,38.0,31.4,21.3,0000.0,0004.19,0009.39,0003.34
2023-05-18 03:17:00,,0829.3,5.00,0.00,29.8,28.4,00.0,38.0,31.4,21.9,0000.0,0004.26,0010.41,0003.36
2023-05-18 03:18:00,,0829.3,5.00,0.00,29.8,28.4,00.0,38.0,31.4,22.5,0000.0,0004.29,0011.04,0003.39
2023-05-18 03:19:00,,0829.4,4.99,0.00,29.8,28.5,00.0,38.1,31.5,22.9,0000.0,0004.40,0012.04,0003.41
2023-05-18 03:20:00,,0829.3,5.00,0.00,29.8,28.5,00.0,38.1,31.5,23.3,0000.0,0004.43,0012.40,0003.43
2023-05-18 03:21:00,,0829.4,5.00,0.00,29.8,28.5,00.0,38.1,31.5,23.7,0000.0,0004.46,0012.69,0003.46
2023-05-18 03:22:00,,0829.5,5.00,0.00,29.9,28.5,00.0,38.1,31.5,23.8,0000.0,0004.52,0012.81,0003.48
2023-05-18 03:23:00,,0829.6,5.01,0.00,29.9,28.5,00.0,38.1,31.5,23.9,0000.0,0004.57,0013.18,0003.51
2023-05-18 03:24:00,,0829.7,5.00,0.00,29.9,28.5,00.0,38.1,31.5,24.3,0000.0,0004.59,0012.57,0003.55
2023-05-18 03:25:00,,0829.7,4.99,0.00,29.9,28.5,00.0,38.2,31.5,24.4,0000.0,0004.64,0013.10,0003.59
2023-05-18 03:26:00,,0829.7,5.01,0.00,29.9,28.5,00.0,38.2,31.5,24.5,0000.0,0004.65,0013.42,0003.63
2023-05-18 03:27:00,,0829.7,5.01,0.00,29.9,28.5,00.0,38.2,31.5,24.5,0000.0,0004.65,0013.33,0003.67
2023-05-18 03:28:00,,0829.7,4.99,0.00,29.9,28.5,00.0,38.2,31.5,24.7,0000.0,0004.64,0012.47,0003.70
2023-05-18 03:29:00,,0829.7,5.00,0.00,29.9,28.5,00.0,38.2,31.5,24.8,0000.0,0004.73,0012.14,0003.72
2023-05-18 03:30:00,,0829.8,5.01,0.00,29.9,28.5,00.0,38.2,31.5,24.9,0000.0,0004.73,0011.38,0003.75
2023-05-18 03:31:00,,0829.8,4.99,0.00,29.9,28.5,00.0,38.2,31.5,25.0,0000.0,0004.76,0011.25,0003.79
2023-05-18 03:32:00,,0829.9,5.00,0.00,29.9,28.5,00.0,38.2,31.5,25.0,0000.0,0004.83,0011.40,0003.84
2023-05-18 03:33:00,,0829.9,5.01,0.00,29.9,28.5,00.0,38.2,31.5,24.9,0000.0,0004.89,0011.82,0003.87
2023-05-18 03:34:00,,0830.0,5.00,0.00,29.9,28.5,00.0,38.3,31.5,25.0,0000.0,0004.92,0011.63,0003.91
2023-05-18 03:35:00,,0830.0,4.98,0.00,29.9,28.5,00.0,38.3,31.5,25.2,0000.0,0004.92,0011.32,0003.93
2023-05-18 03:36:00,,0830.0,5.00,0.00,30.0,28.5,00.0,38.3,31.6,25.2,0000.0,0004.96,0011.23,0003.94
2023-05-18 03:37:00,,0830.0,5.01,0.00,30.0,28.5,00.0,38.3,31.6,25.2,0000.0,0005.02,0011.75,0003.95
2023-05-18 03:38:00,,0830.0,5.00,0.00,30.0,28.5,00.0,38.3,31.6,25.2,0000.0,0005.07,0011.85,0003.95
2023-05-18 03:39:00,,0830.0,5.00,0.00,30.0,28.5,00.0,38.3,31.6,25.2,0000.0,0005.07,0011.69,0003.94
2023-05-18 03:40:00,,0830.0,5.00,0.00,30.0,28.5,00.0,38.3,31.6,25.2,0000.0,0005.00,0011.40,0003.92
2023-05-18 03:41:00,,0830.1,5.00,0.00,30.0,28.5,00.0,38.3,31.6,25.1,0000.0,0004.95,0011.96,0003.89
2023-05-18 03:42:00,,0830.1,4.99,0.00,30.0,28.5,00.0,38.3,31.6,25.1,0000.0,0004.85,0012.04,0003.84
2023-05-18 03:43:00,,0830.2,4.99,0.00,30.0,28.6,00.0,38.3,31.6,25.2,0000.0,0004.81,0011.76,0003.80
2023-05-18 03:44:00,,0830.3,5.01,0.00,30.0,28.6,00.0,38.3,31.6,25.2,0000.0,0004.78,0011.46,0003.76
2023-05-18 03:45:00,,0830.2,5.01,0.00,30.0,28.6,00.0,38.4,31.6,25.3,0000.0,0004.73,0011.51,0003.71
2023-05-18 03:46:00,,0830.3,4.98,0.00,30.0,28.6,00.0,38.4,31.6,25.3,0000.0,0004.73,0011.90,0003.66
2023-05-18 03:47:00,,0830.3,5.00,0.00,30.0,28.6,00.0,38.4,31.6,25.0,0000.0,0004.66,0011.73,0003.61
2023-05-18 03:48:00,,0830.3,5.00,0.00,30.0,28.6,00.0,38.4,31.6,25.1,0000.0,0004.62,0011.31,0003.57
2023-05-18 03:49:00,,0830.4,5.01,0.00,30.1,28.6,00.0,38.4,31.7,25.1,0000.0,0004.53,0011.80,0003.51
2023-05-18 03:50:00,,0830.4,5.00,0.00,30.1,28.6,00.0,38.4,31.7,24.9,0000.0,0004.51,0011.82,0003.46
2023-05-18 03:51:00,,0830.4,4.98,0.00,30.1,28.6,00.0,38.4,31.7,24.7,0000.0,0004.45,0011.65,0003.42
2023-05-18 03:52:00,,0830.6,5.01,0.00,30.1,28.7,00.0,38.4,31.7,24.6,0000.0,0004.39,0011.05,0003.40
2023-05-18 03:53:00,,0830.5,5.01,0.00,30.1,28.7,00.0,38.4,31.7,24.6,0000.0,0004.39,0010.90,0003.37
2023-05-18 03:54:00,,0830.5,4.99,0.00,30.1,28.7,00.0,38.4,31.7,24.4,0000.0,0004.32,0010.72,0003.34
2023-05-18 03:55:00,,0830.5,4.98,0.00,30.1,28.7,00.0,38.4,31.7,24.3,0000.0,0004.24,0010.59,0003.30
2023-05-18 03:56:00,,0830.5,5.00,0.00,30.1,28.7,00.0,38.4,31.7,24.5,0000.0,0004.22,0010.71,0003.27
2023-05-18 03:57:00,,0830.6,5.01,0.00,30.1,28.7,00.0,38.5,31.7,24.3,0000.0,0004.17,0010.41,0003.23
2023-05-18 03:58:00,,0830.6,4.99,0.00,30.1,28.7,00.0,38.5,31.7,24.3,0000.0,0004.08,0010.61,0003.21
2023-05-18 03:59:00,,0830.6,5.01,0.00,30.1,28.7,00.0,38.5,31.7,24.2,0000.0,0004.01,0010.22,0003.17
